Year,Month,Day,Hour,Minute,Value (Times are PST for windgust in km/hr)
2016,10,07,00,00,54.70
2016,10,07,00,01,30.60
2016,10,07,00,02,32.20
2016,10,07,00,03,35.40
2016,10,07,00,04,40.20
2016,10,07,00,05,43.50
2016,10,07,00,06,43.50
2016,10,07,00,07,38.60
2016,10,07,00,08,46.70
2016,10,07,00,09,43.50
2016,10,07,00,10,49.90
2016,10,07,00,11,33.80
2016,10,07,00,12,37.00
2016,10,07,00,13,49.90
2016,10,07,00,14,51.50
2016,10,07,00,15,41.80
2016,10,07,00,16,27.40
2016,10,07,00,17,35.40
2016,10,07,00,18,43.50
2016,10,07,00,19,24.20
2016,10,07,00,20,35.40
2016,10,07,00,21,38.60
2016,10,07,00,22,33.80
2016,10,07,00,23,32.20
2016,10,07,00,24,22.50
2016,10,07,00,25,19.30
2016,10,07,00,26,48.30
2016,10,07,00,27,45.10
2016,10,07,00,28,37.00
2016,10,07,00,29,45.10
2016,10,07,00,30,41.80
2016,10,07,00,31,53.10
2016,10,07,00,32,40.20
2016,10,07,00,33,27.40
2016,10,07,00,34,33.80
2016,10,07,00,35,25.70
2016,10,07,00,36,40.20
2016,10,07,00,37,37.00
2016,10,07,00,38,29.00
2016,10,07,00,39,30.60
2016,10,07,00,40,46.70
2016,10,07,00,41,53.10
2016,10,07,00,42,40.20
2016,10,07,00,43,38.60
2016,10,07,00,44,30.60
2016,10,07,00,45,40.20
2016,10,07,00,46,25.70
2016,10,07,00,47,45.10
2016,10,07,00,48,37.00
2016,10,07,00,49,41.80
2016,10,07,00,50,43.50
2016,10,07,00,51,40.20
2016,10,07,00,52,24.20
2016,10,07,00,53,33.80
2016,10,07,00,54,37.00
2016,10,07,00,55,41.80
2016,10,07,00,56,43.50
2016,10,07,00,57,32.20
2016,10,07,00,58,43.50
2016,10,07,00,59,37.00
2016,10,07,01,00,43.50
2016,10,07,01,01,27.40
2016,10,07,01,02,38.60
2016,10,07,01,03,38.60
2016,10,07,01,04,27.40
2016,10,07,01,05,37.00
2016,10,07,01,06,48.30
2016,10,07,01,07,38.60
2016,10,07,01,08,27.40
2016,10,07,01,09,30.60
2016,10,07,01,10,20.90
2016,10,07,01,11,33.80
2016,10,07,01,12,30.60
2016,10,07,01,13,30.60
2016,10,07,01,14,33.80
2016,10,07,01,15,22.50
2016,10,07,01,16,41.80
2016,10,07,01,17,32.20
2016,10,07,01,18,33.80
2016,10,07,01,19,25.70
2016,10,07,01,20,20.90
2016,10,07,01,21,27.40
2016,10,07,01,22,32.20
2016,10,07,01,23,32.20
2016,10,07,01,24,30.60
2016,10,07,01,25,25.70
2016,10,07,01,26,17.70
2016,10,07,01,27,29.00
2016,10,07,01,28,24.20
2016,10,07,01,29,27.40
2016,10,07,01,30,25.70
2016,10,07,01,31,19.30
2016,10,07,01,32,24.20
2016,10,07,01,33,20.90
2016,10,07,01,34,14.50
2016,10,07,01,35,27.40
2016,10,07,01,36,25.70
2016,10,07,01,37,22.50
2016,10,07,01,38,17.70
2016,10,07,01,39,4.80
2016,10,07,01,40,27.40
2016,10,07,01,41,16.10
2016,10,07,01,42,29.00
2016,10,07,01,43,17.70
2016,10,07,01,44,19.30
2016,10,07,01,45,16.10
2016,10,07,01,46,20.90
2016,10,07,01,47,17.70
2016,10,07,01,48,14.50
2016,10,07,01,49,27.40
2016,10,07,01,50,20.90
2016,10,07,01,51,9.60
2016,10,07,01,52,6.40
2016,10,07,01,53,8.10
2016,10,07,01,54,11.30
2016,10,07,01,55,16.10
2016,10,07,01,56,16.10
2016,10,07,01,57,17.70
2016,10,07,01,58,17.70
2016,10,07,01,59,9.60
2016,10,07,02,00,14.50
2016,10,07,02,01,12.90
2016,10,07,02,02,9.60
2016,10,07,02,03,16.10
2016,10,07,02,04,17.70
2016,10,07,02,05,8.10
2016,10,07,02,06,9.60
2016,10,07,02,07,6.40
2016,10,07,02,08,3.20
2016,10,07,02,09,1.60
2016,10,07,02,10,4.80
2016,10,07,02,11,4.80
2016,10,07,02,12,4.80
2016,10,07,02,13,6.40
2016,10,07,02,14,4.80
2016,10,07,02,15,3.20
2016,10,07,02,16,6.40
2016,10,07,02,17,8.10
2016,10,07,02,18,16.10
2016,10,07,02,19,9.60
2016,10,07,02,20,4.80
2016,10,07,02,21,6.40
2016,10,07,02,22,8.10
2016,10,07,02,23,9.60
2016,10,07,02,24,17.70
2016,10,07,02,25,25.70
2016,10,07,02,26,24.20
2016,10,07,02,27,20.90
2016,10,07,02,28,11.30
2016,10,07,02,29,9.60
2016,10,07,02,30,6.40
2016,10,07,02,31,6.40
2016,10,07,02,32,8.10
2016,10,07,02,33,4.80
2016,10,07,02,34,8.10
2016,10,07,02,35,16.10
2016,10,07,02,36,20.90
2016,10,07,02,37,11.30
2016,10,07,02,38,14.50
2016,10,07,02,39,11.30
2016,10,07,02,40,20.90
2016,10,07,02,41,27.40
2016,10,07,02,42,22.50
2016,10,07,02,43,25.70
2016,10,07,02,44,46.70
2016,10,07,02,45,43.50
2016,10,07,02,46,64.40
2016,10,07,02,47,49.90
2016,10,07,02,48,40.20
2016,10,07,02,49,51.50
2016,10,07,02,50,54.70
2016,10,07,02,51,41.80
2016,10,07,02,52,49.90
2016,10,07,02,53,48.30
2016,10,07,02,54,43.50
2016,10,07,02,55,48.30
2016,10,07,02,56,48.30
2016,10,07,02,57,40.20
2016,10,07,02,58,51.50
2016,10,07,02,59,54.70
2016,10,07,03,00,54.70
2016,10,07,03,01,46.70
2016,10,07,03,02,25.70
2016,10,07,03,03,53.10
2016,10,07,03,04,54.70
2016,10,07,03,05,51.50
2016,10,07,03,06,51.50
2016,10,07,03,07,46.70
2016,10,07,03,08,46.70
2016,10,07,03,09,53.10
2016,10,07,03,10,38.60
2016,10,07,03,11,46.70
2016,10,07,03,12,45.10
2016,10,07,03,13,46.70
2016,10,07,03,14,41.80
2016,10,07,03,15,46.70
2016,10,07,03,16,35.40
2016,10,07,03,17,46.70
2016,10,07,03,18,51.50
2016,10,07,03,19,77.30
2016,10,07,03,20,49.90
2016,10,07,03,21,62.70
2016,10,07,03,22,51.50
2016,10,07,03,23,41.80
2016,10,07,03,24,38.60
2016,10,07,03,25,45.10
2016,10,07,03,26,32.20
2016,10,07,03,27,37.00
2016,10,07,03,28,32.20
2016,10,07,03,29,48.30
2016,10,07,03,30,56.30
2016,10,07,03,31,53.10
2016,10,07,03,32,43.50
2016,10,07,03,33,37.00
2016,10,07,03,34,33.80
2016,10,07,03,35,45.10
2016,10,07,03,36,43.50
2016,10,07,03,37,43.50
2016,10,07,03,38,30.60
2016,10,07,03,39,40.20
2016,10,07,03,40,35.40
2016,10,07,03,41,46.70
2016,10,07,03,42,37.00
2016,10,07,03,43,38.60
2016,10,07,03,44,29.00
2016,10,07,03,45,24.20
2016,10,07,03,46,22.50
2016,10,07,03,47,37.00
2016,10,07,03,48,41.80
2016,10,07,03,49,37.00
2016,10,07,03,50,49.90
2016,10,07,03,51,35.40
2016,10,07,03,52,35.40
2016,10,07,03,53,38.60
2016,10,07,03,54,51.50
2016,10,07,03,55,43.50
2016,10,07,03,56,35.40
2016,10,07,03,57,30.60
2016,10,07,03,58,54.70
2016,10,07,03,59,53.10
2016,10,07,04,00,37.00
2016,10,07,04,01,51.50
2016,10,07,04,02,41.80
2016,10,07,04,03,45.10
2016,10,07,04,04,40.20
2016,10,07,04,05,29.00
2016,10,07,04,06,33.80
2016,10,07,04,07,29.00
2016,10,07,04,08,41.80
2016,10,07,04,09,41.80
2016,10,07,04,10,48.30
2016,10,07,04,11,43.50
2016,10,07,04,12,53.10
2016,10,07,04,13,53.10
2016,10,07,04,14,41.80
2016,10,07,04,15,45.10
2016,10,07,04,16,45.10
2016,10,07,04,17,43.50
2016,10,07,04,18,35.40
2016,10,07,04,19,43.50
2016,10,07,04,20,46.70
2016,10,07,04,21,51.50
2016,10,07,04,22,40.20
2016,10,07,04,23,41.80
2016,10,07,04,24,33.80
2016,10,07,04,25,46.70
2016,10,07,04,26,41.80
2016,10,07,04,27,29.00
2016,10,07,04,28,35.40
2016,10,07,04,29,40.20
2016,10,07,04,30,35.40
2016,10,07,04,31,53.10
2016,10,07,04,32,35.40
2016,10,07,04,33,33.80
2016,10,07,04,34,43.50
2016,10,07,04,35,45.10
2016,10,07,04,36,43.50
2016,10,07,04,37,56.30
2016,10,07,04,38,40.20
2016,10,07,04,39,41.80
2016,10,07,04,40,51.50
2016,10,07,04,41,32.20
2016,10,07,04,42,59.50
2016,10,07,04,43,40.20
2016,10,07,04,44,32.20
2016,10,07,04,45,41.80
2016,10,07,04,46,41.80
2016,10,07,04,47,32.20
2016,10,07,04,48,45.10
2016,10,07,04,49,35.40
2016,10,07,04,50,41.80
2016,10,07,04,51,33.80
2016,10,07,04,52,40.20
2016,10,07,04,53,48.30
2016,10,07,04,54,59.50
2016,10,07,04,55,64.40
2016,10,07,04,56,40.20
2016,10,07,04,57,45.10
2016,10,07,04,58,40.20
2016,10,07,04,59,49.90
2016,10,07,05,00,45.10
2016,10,07,05,01,43.50
2016,10,07,05,02,51.50
2016,10,07,05,03,49.90
2016,10,07,05,04,40.20
2016,10,07,05,05,48.30
2016,10,07,05,06,57.90
2016,10,07,05,07,59.50
2016,10,07,05,08,59.50
2016,10,07,05,09,51.50
2016,10,07,05,10,49.90
2016,10,07,05,11,53.10
2016,10,07,05,12,45.10
2016,10,07,05,13,53.10
2016,10,07,05,14,59.50
2016,10,07,05,15,35.40
2016,10,07,05,16,37.00
2016,10,07,05,17,33.80
2016,10,07,05,18,43.50
2016,10,07,05,19,43.50
2016,10,07,05,20,54.70
2016,10,07,05,21,43.50
2016,10,07,05,22,37.00
2016,10,07,05,23,53.10
2016,10,07,05,24,56.30
2016,10,07,05,25,64.40
2016,10,07,05,26,48.30
2016,10,07,05,27,54.70
2016,10,07,05,28,51.50
2016,10,07,05,29,38.60
2016,10,07,05,30,45.10
2016,10,07,05,31,46.70
2016,10,07,05,32,53.10
2016,10,07,05,33,54.70
2016,10,07,05,34,57.90
2016,10,07,05,35,49.90
2016,10,07,05,36,46.70
2016,10,07,05,37,40.20
2016,10,07,05,38,49.90
2016,10,07,05,39,48.30
2016,10,07,05,40,53.10
2016,10,07,05,41,38.60
2016,10,07,05,42,59.50
2016,10,07,05,43,43.50
2016,10,07,05,44,48.30
2016,10,07,05,45,59.50
2016,10,07,05,46,53.10
2016,10,07,05,47,41.80
2016,10,07,05,48,40.20
2016,10,07,05,49,41.80
2016,10,07,05,50,35.40
2016,10,07,05,51,32.20
2016,10,07,05,52,46.70
2016,10,07,05,53,41.80
2016,10,07,05,54,45.10
2016,10,07,05,55,46.70
2016,10,07,05,56,37.00
2016,10,07,05,57,38.60
2016,10,07,05,58,40.20
2016,10,07,05,59,49.90
2016,10,07,06,00,37.00
2016,10,07,06,01,37.00
2016,10,07,06,02,43.50
2016,10,07,06,03,41.80
2016,10,07,06,04,35.40
2016,10,07,06,05,27.40
2016,10,07,06,06,32.20
2016,10,07,06,07,37.00
2016,10,07,06,08,45.10
2016,10,07,06,09,43.50
2016,10,07,06,10,33.80
2016,10,07,06,11,38.60
2016,10,07,06,12,33.80
2016,10,07,06,13,45.10
2016,10,07,06,14,35.40
2016,10,07,06,15,37.00
2016,10,07,06,16,33.80
2016,10,07,06,17,33.80
2016,10,07,06,18,41.80
2016,10,07,06,19,38.60
2016,10,07,06,20,45.10
2016,10,07,06,21,33.80
2016,10,07,06,22,41.80
2016,10,07,06,23,37.00
2016,10,07,06,24,32.20
2016,10,07,06,25,29.00
2016,10,07,06,26,30.60
2016,10,07,06,27,27.40
2016,10,07,06,28,40.20
2016,10,07,06,29,33.80
2016,10,07,06,30,35.40
2016,10,07,06,31,32.20
2016,10,07,06,32,27.40
2016,10,07,06,33,24.20
2016,10,07,06,34,35.40
2016,10,07,06,35,40.20
2016,10,07,06,36,30.60
2016,10,07,06,37,35.40
2016,10,07,06,38,29.00
2016,10,07,06,39,27.40
2016,10,07,06,40,33.80
2016,10,07,06,41,32.20
2016,10,07,06,42,37.00
2016,10,07,06,43,38.60
2016,10,07,06,44,32.20
2016,10,07,06,45,41.80
2016,10,07,06,46,40.20
2016,10,07,06,47,38.60
2016,10,07,06,48,40.20
2016,10,07,06,49,51.50
2016,10,07,06,50,27.40
2016,10,07,06,51,27.40
2016,10,07,06,52,29.00
2016,10,07,06,53,33.80
2016,10,07,06,54,33.80
2016,10,07,06,55,33.80
2016,10,07,06,56,30.60
2016,10,07,06,57,33.80
2016,10,07,06,58,32.20
2016,10,07,06,59,38.60
2016,10,07,07,00,38.60
2016,10,07,07,01,41.80
2016,10,07,07,02,30.60
2016,10,07,07,03,38.60
2016,10,07,07,04,22.50
2016,10,07,07,05,33.80
2016,10,07,07,06,38.60
2016,10,07,07,07,49.90
2016,10,07,07,08,41.80
2016,10,07,07,09,40.20
2016,10,07,07,10,27.40
2016,10,07,07,11,41.80
2016,10,07,07,12,29.00
2016,10,07,07,13,40.20
2016,10,07,07,14,20.90
2016,10,07,07,15,33.80
2016,10,07,07,16,30.60
2016,10,07,07,17,40.20
2016,10,07,07,18,33.80
2016,10,07,07,19,27.40
2016,10,07,07,20,35.40
2016,10,07,07,21,19.30
2016,10,07,07,22,17.70
2016,10,07,07,23,57.90
2016,10,07,07,24,53.10
2016,10,07,07,25,37.00
2016,10,07,07,26,35.40
2016,10,07,07,27,37.00
2016,10,07,07,28,32.20
2016,10,07,07,29,35.40
2016,10,07,07,30,40.20
2016,10,07,07,31,32.20
2016,10,07,07,32,29.00
2016,10,07,07,33,35.40
2016,10,07,07,34,37.00
2016,10,07,07,35,29.00
2016,10,07,07,36,25.70
2016,10,07,07,37,27.40
2016,10,07,07,38,22.50
2016,10,07,07,39,30.60
2016,10,07,07,40,35.40
2016,10,07,07,41,38.60
2016,10,07,07,42,38.60
2016,10,07,07,43,27.40
2016,10,07,07,44,30.60
2016,10,07,07,45,40.20
2016,10,07,07,46,32.20
2016,10,07,07,47,33.80
2016,10,07,07,48,22.50
2016,10,07,07,49,27.40
2016,10,07,07,50,33.80
2016,10,07,07,51,27.40
2016,10,07,07,52,24.20
2016,10,07,07,53,37.00
2016,10,07,07,54,30.60
2016,10,07,07,55,35.40
2016,10,07,07,56,37.00
2016,10,07,07,57,38.60
2016,10,07,07,58,30.60
2016,10,07,07,59,33.80
2016,10,07,08,00,30.60
2016,10,07,08,01,24.20
2016,10,07,08,02,30.60
2016,10,07,08,03,29.00
2016,10,07,08,04,27.40
2016,10,07,08,05,30.60
2016,10,07,08,06,30.60
2016,10,07,08,07,33.80
2016,10,07,08,08,22.50
2016,10,07,08,09,20.90
2016,10,07,08,10,29.00
2016,10,07,08,11,46.70
2016,10,07,08,12,32.20
2016,10,07,08,13,24.20
2016,10,07,08,14,32.20
2016,10,07,08,15,40.20
2016,10,07,08,16,37.00
2016,10,07,08,17,33.80
2016,10,07,08,18,35.40
2016,10,07,08,19,33.80
2016,10,07,08,20,30.60
2016,10,07,08,21,35.40
2016,10,07,08,22,33.80
2016,10,07,08,23,32.20
2016,10,07,08,24,19.30
2016,10,07,08,25,25.70
2016,10,07,08,26,35.40
2016,10,07,08,27,30.60
2016,10,07,08,28,29.00
2016,10,07,08,29,30.60
2016,10,07,08,30,41.80
2016,10,07,08,31,27.40
2016,10,07,08,32,22.50
2016,10,07,08,33,17.70
2016,10,07,08,34,20.90
2016,10,07,08,35,22.50
2016,10,07,08,36,22.50
2016,10,07,08,37,22.50
2016,10,07,08,38,24.20
2016,10,07,08,39,29.00
2016,10,07,08,40,29.00
2016,10,07,08,41,32.20
2016,10,07,08,42,20.90
2016,10,07,08,43,24.20
2016,10,07,08,44,20.90
2016,10,07,08,45,20.90
2016,10,07,08,46,33.80
2016,10,07,08,47,24.20
2016,10,07,08,48,35.40
2016,10,07,08,49,37.00
2016,10,07,08,50,30.60
2016,10,07,08,51,33.80
2016,10,07,08,52,35.40
2016,10,07,08,53,37.00
2016,10,07,08,54,37.00
2016,10,07,08,55,20.90
2016,10,07,08,56,30.60
2016,10,07,08,57,24.20
2016,10,07,08,58,37.00
2016,10,07,08,59,35.40
2016,10,07,09,00,38.60
2016,10,07,09,01,20.90
2016,10,07,09,02,25.70
2016,10,07,09,03,25.70
2016,10,07,09,04,20.90
2016,10,07,09,05,24.20
2016,10,07,09,06,27.40
2016,10,07,09,07,32.20
2016,10,07,09,08,27.40
2016,10,07,09,09,33.80
2016,10,07,09,10,33.80
2016,10,07,09,11,32.20
2016,10,07,09,12,32.20
2016,10,07,09,13,27.40
2016,10,07,09,14,25.70
2016,10,07,09,15,25.70
2016,10,07,09,16,38.60
2016,10,07,09,17,29.00
2016,10,07,09,18,37.00
2016,10,07,09,19,33.80
2016,10,07,09,20,27.40
2016,10,07,09,21,27.40
2016,10,07,09,22,24.20
2016,10,07,09,23,33.80
2016,10,07,09,24,35.40
2016,10,07,09,25,27.40
2016,10,07,09,26,22.50
2016,10,07,09,27,25.70
2016,10,07,09,28,24.20
2016,10,07,09,29,27.40
2016,10,07,09,30,38.60
2016,10,07,09,31,35.40
2016,10,07,09,32,37.00
2016,10,07,09,33,37.00
2016,10,07,09,34,32.20
2016,10,07,09,35,24.20
2016,10,07,09,36,30.60
2016,10,07,09,37,35.40
2016,10,07,09,38,38.60
2016,10,07,09,39,27.40
2016,10,07,09,40,30.60
2016,10,07,09,41,25.70
2016,10,07,09,42,33.80
2016,10,07,09,43,33.80
2016,10,07,09,44,33.80
2016,10,07,09,45,25.70
2016,10,07,09,46,40.20
2016,10,07,09,47,37.00
2016,10,07,09,48,20.90
2016,10,07,09,49,25.70
2016,10,07,09,50,27.40
2016,10,07,09,51,35.40
2016,10,07,09,52,27.40
2016,10,07,09,53,24.20
2016,10,07,09,54,29.00
2016,10,07,09,55,25.70
2016,10,07,09,56,35.40
2016,10,07,09,57,35.40
2016,10,07,09,58,25.70
2016,10,07,09,59,30.60
2016,10,07,10,00,37.00
2016,10,07,10,01,35.40
2016,10,07,10,02,32.20
2016,10,07,10,03,27.40
2016,10,07,10,04,25.70
2016,10,07,10,05,27.40
2016,10,07,10,06,32.20
2016,10,07,10,07,30.60
2016,10,07,10,08,17.70
2016,10,07,10,09,29.00
2016,10,07,10,10,20.90
2016,10,07,10,11,25.70
2016,10,07,10,12,35.40
2016,10,07,10,13,22.50
2016,10,07,10,14,25.70
2016,10,07,10,15,29.00
2016,10,07,10,16,35.40
2016,10,07,10,17,29.00
2016,10,07,10,18,30.60
2016,10,07,10,19,19.30
2016,10,07,10,20,43.50
2016,10,07,10,21,24.20
2016,10,07,10,22,20.90
2016,10,07,10,23,25.70
2016,10,07,10,24,27.40
2016,10,07,10,25,33.80
2016,10,07,10,26,27.40
2016,10,07,10,27,24.20
2016,10,07,10,28,27.40
2016,10,07,10,29,25.70
2016,10,07,10,30,22.50
2016,10,07,10,31,22.50
2016,10,07,10,32,19.30
2016,10,07,10,33,22.50
2016,10,07,10,34,14.50
2016,10,07,10,35,22.50
2016,10,07,10,36,30.60
2016,10,07,10,37,35.40
2016,10,07,10,38,25.70
2016,10,07,10,39,32.20
2016,10,07,10,40,40.20
2016,10,07,10,41,40.20
2016,10,07,10,42,40.20
2016,10,07,10,43,33.80
2016,10,07,10,44,32.20
2016,10,07,10,45,27.40
2016,10,07,10,46,29.00
2016,10,07,10,47,25.70
2016,10,07,10,48,29.00
2016,10,07,10,49,38.60
2016,10,07,10,50,22.50
2016,10,07,10,51,27.40
2016,10,07,10,52,29.00
2016,10,07,10,53,33.80
2016,10,07,10,54,29.00
2016,10,07,10,55,32.20
2016,10,07,10,56,30.60
2016,10,07,10,57,29.00
2016,10,07,10,58,25.70
2016,10,07,10,59,32.20
2016,10,07,11,00,22.50
2016,10,07,11,01,25.70
2016,10,07,11,02,40.20
2016,10,07,11,03,37.00
2016,10,07,11,04,37.00
2016,10,07,11,05,25.70
2016,10,07,11,06,25.70
2016,10,07,11,07,37.00
2016,10,07,11,08,30.60
2016,10,07,11,09,24.20
2016,10,07,11,10,30.60
2016,10,07,11,11,32.20
2016,10,07,11,12,29.00
2016,10,07,11,13,35.40
2016,10,07,11,14,38.60
2016,10,07,11,15,45.10
2016,10,07,11,16,33.80
2016,10,07,11,17,33.80
2016,10,07,11,18,30.60
2016,10,07,11,19,41.80
2016,10,07,11,20,43.50
2016,10,07,11,21,33.80
2016,10,07,11,22,43.50
2016,10,07,11,23,37.00
2016,10,07,11,24,41.80
2016,10,07,11,25,35.40
2016,10,07,11,26,27.40
2016,10,07,11,27,37.00
2016,10,07,11,28,41.80
2016,10,07,11,29,33.80
2016,10,07,11,30,38.60
2016,10,07,11,31,35.40
2016,10,07,11,32,32.20
2016,10,07,11,33,29.00
2016,10,07,11,34,25.70
2016,10,07,11,35,40.20
2016,10,07,11,36,37.00
2016,10,07,11,37,33.80
2016,10,07,11,38,32.20
2016,10,07,11,39,33.80
2016,10,07,11,40,38.60
2016,10,07,11,41,40.20
2016,10,07,11,42,35.40
2016,10,07,11,43,35.40
2016,10,07,11,44,33.80
2016,10,07,11,45,35.40
2016,10,07,11,46,35.40
2016,10,07,11,47,37.00
2016,10,07,11,48,37.00
2016,10,07,11,49,37.00
2016,10,07,11,50,53.10
2016,10,07,11,51,45.10
2016,10,07,11,52,41.80
2016,10,07,11,53,37.00
2016,10,07,11,54,37.00
2016,10,07,11,55,37.00
2016,10,07,11,56,43.50
2016,10,07,11,57,35.40
2016,10,07,11,58,30.60
2016,10,07,11,59,43.50
2016,10,07,12,00,40.20
2016,10,07,12,01,38.60
2016,10,07,12,02,29.00
2016,10,07,12,03,29.00
2016,10,07,12,04,33.80
2016,10,07,12,05,37.00
2016,10,07,12,06,27.40
2016,10,07,12,07,32.20
2016,10,07,12,08,27.40
2016,10,07,12,09,29.00
2016,10,07,12,10,30.60
2016,10,07,12,11,35.40
2016,10,07,12,12,30.60
2016,10,07,12,13,41.80
2016,10,07,12,14,46.70
2016,10,07,12,15,32.20
2016,10,07,12,16,38.60
2016,10,07,12,17,27.40
2016,10,07,12,18,29.00
2016,10,07,12,19,30.60
2016,10,07,12,20,33.80
2016,10,07,12,21,29.00
2016,10,07,12,22,24.20
2016,10,07,12,23,40.20
2016,10,07,12,24,41.80
2016,10,07,12,25,32.20
2016,10,07,12,26,30.60
2016,10,07,12,27,46.70
2016,10,07,12,28,41.80
2016,10,07,12,29,27.40
2016,10,07,12,30,30.60
2016,10,07,12,31,38.60
2016,10,07,12,32,37.00
2016,10,07,12,33,30.60
2016,10,07,12,34,32.20
2016,10,07,12,35,33.80
2016,10,07,12,36,27.40
2016,10,07,12,37,20.90
2016,10,07,12,38,19.30
2016,10,07,12,39,19.30
2016,10,07,12,40,27.40
2016,10,07,12,41,29.00
2016,10,07,12,42,32.20
2016,10,07,12,43,32.20
2016,10,07,12,44,33.80
2016,10,07,12,45,30.60
2016,10,07,12,46,29.00
2016,10,07,12,47,29.00
2016,10,07,12,48,33.80
2016,10,07,12,49,38.60
2016,10,07,12,50,37.00
2016,10,07,12,51,25.70
2016,10,07,12,52,27.40
2016,10,07,12,53,24.20
2016,10,07,12,54,22.50
2016,10,07,12,55,27.40
2016,10,07,12,56,24.20
2016,10,07,12,57,17.70
2016,10,07,12,58,22.50
2016,10,07,12,59,22.50
2016,10,07,13,00,19.30
2016,10,07,13,01,12.90
2016,10,07,13,02,30.60
2016,10,07,13,03,20.90
2016,10,07,13,04,24.20
2016,10,07,13,05,29.00
2016,10,07,13,06,35.40
2016,10,07,13,07,17.70
2016,10,07,13,08,20.90
2016,10,07,13,09,19.30
2016,10,07,13,10,32.20
2016,10,07,13,11,24.20
2016,10,07,13,12,22.50
2016,10,07,13,13,24.20
2016,10,07,13,14,37.00
2016,10,07,13,15,30.60
2016,10,07,13,16,38.60
2016,10,07,13,17,38.60
2016,10,07,13,18,27.40
2016,10,07,13,19,25.70
2016,10,07,13,20,20.90
2016,10,07,13,21,20.90
2016,10,07,13,22,22.50
2016,10,07,13,23,16.10
2016,10,07,13,24,22.50
2016,10,07,13,25,22.50
2016,10,07,13,26,27.40
2016,10,07,13,27,33.80
2016,10,07,13,28,32.20
2016,10,07,13,29,20.90
2016,10,07,13,30,25.70
2016,10,07,13,31,29.00
2016,10,07,13,32,27.40
2016,10,07,13,33,27.40
2016,10,07,13,34,29.00
2016,10,07,13,35,24.20
2016,10,07,13,36,27.40
2016,10,07,13,37,29.00
2016,10,07,13,38,27.40
2016,10,07,13,39,30.60
2016,10,07,13,40,29.00
2016,10,07,13,41,27.40
2016,10,07,13,42,24.20
2016,10,07,13,43,22.50
2016,10,07,13,44,17.70
2016,10,07,13,45,17.70
2016,10,07,13,46,19.30
2016,10,07,13,47,11.30
2016,10,07,13,48,16.10
2016,10,07,13,49,20.90
2016,10,07,13,50,25.70
2016,10,07,13,51,24.20
2016,10,07,13,52,27.40
2016,10,07,13,53,20.90
2016,10,07,13,54,19.30
2016,10,07,13,55,27.40
2016,10,07,13,56,24.20
2016,10,07,13,57,17.70
2016,10,07,13,58,22.50
2016,10,07,13,59,27.40
2016,10,07,14,00,41.80
2016,10,07,14,01,35.40
2016,10,07,14,02,37.00
2016,10,07,14,03,37.00
2016,10,07,14,04,29.00
2016,10,07,14,05,29.00
2016,10,07,14,06,32.20
2016,10,07,14,07,27.40
2016,10,07,14,08,32.20
2016,10,07,14,09,33.80
2016,10,07,14,10,32.20
2016,10,07,14,11,35.40
2016,10,07,14,12,40.20
2016,10,07,14,13,25.70
2016,10,07,14,14,30.60
2016,10,07,14,15,20.90
2016,10,07,14,16,27.40
2016,10,07,14,17,17.70
2016,10,07,14,18,30.60
2016,10,07,14,19,35.40
2016,10,07,14,20,27.40
2016,10,07,14,21,32.20
2016,10,07,14,22,22.50
2016,10,07,14,23,25.70
2016,10,07,14,24,16.10
2016,10,07,14,25,30.60
2016,10,07,14,26,33.80
2016,10,07,14,27,33.80
2016,10,07,14,28,30.60
2016,10,07,14,29,30.60
2016,10,07,14,30,27.40
2016,10,07,14,31,22.50
2016,10,07,14,32,33.80
2016,10,07,14,33,30.60
2016,10,07,14,34,30.60
2016,10,07,14,35,38.60
2016,10,07,14,36,33.80
2016,10,07,14,37,30.60
2016,10,07,14,38,38.60
2016,10,07,14,39,35.40
2016,10,07,14,40,32.20
2016,10,07,14,41,30.60
2016,10,07,14,42,30.60
2016,10,07,14,43,38.60
2016,10,07,14,44,33.80
2016,10,07,14,45,33.80
2016,10,07,14,46,30.60
2016,10,07,14,47,24.20
2016,10,07,14,48,32.20
2016,10,07,14,49,32.20
2016,10,07,14,50,27.40
2016,10,07,14,51,32.20
2016,10,07,14,52,29.00
2016,10,07,14,53,27.40
2016,10,07,14,54,29.00
2016,10,07,14,55,29.00
2016,10,07,14,56,29.00
2016,10,07,14,57,19.30
2016,10,07,14,58,22.50
2016,10,07,14,59,27.40
2016,10,07,15,00,24.20
2016,10,07,15,01,24.20
2016,10,07,15,02,25.70
2016,10,07,15,03,30.60
2016,10,07,15,04,25.70
2016,10,07,15,05,25.70
2016,10,07,15,06,27.40
2016,10,07,15,07,27.40
2016,10,07,15,08,24.20
2016,10,07,15,09,22.50
2016,10,07,15,10,25.70
2016,10,07,15,11,27.40
2016,10,07,15,12,17.70
2016,10,07,15,13,14.50
2016,10,07,15,14,25.70
2016,10,07,15,15,16.10
2016,10,07,15,16,17.70
2016,10,07,15,17,20.90
2016,10,07,15,18,17.70
2016,10,07,15,19,14.50
2016,10,07,15,20,17.70
2016,10,07,15,21,24.20
2016,10,07,15,22,22.50
2016,10,07,15,23,20.90
2016,10,07,15,24,14.50
2016,10,07,15,25,17.70
2016,10,07,15,26,17.70
2016,10,07,15,27,20.90
2016,10,07,15,28,19.30
2016,10,07,15,29,20.90
2016,10,07,15,30,25.70
2016,10,07,15,31,20.90
2016,10,07,15,32,27.40
2016,10,07,15,33,27.40
2016,10,07,15,34,24.20
2016,10,07,15,35,22.50
2016,10,07,15,36,22.50
2016,10,07,15,37,24.20
2016,10,07,15,38,20.90
2016,10,07,15,39,22.50
2016,10,07,15,40,20.90
2016,10,07,15,41,19.30
2016,10,07,15,42,12.90
2016,10,07,15,43,12.90
2016,10,07,15,44,20.90
2016,10,07,15,45,20.90
2016,10,07,15,46,20.90
2016,10,07,15,47,14.50
2016,10,07,15,48,11.30
2016,10,07,15,49,16.10
2016,10,07,15,50,16.10
2016,10,07,15,51,11.30
2016,10,07,15,52,16.10
2016,10,07,15,53,20.90
2016,10,07,15,54,22.50
2016,10,07,15,55,19.30
2016,10,07,15,56,27.40
2016,10,07,15,57,25.70
2016,10,07,15,58,25.70
2016,10,07,15,59,16.10
2016,10,07,16,00,20.90
2016,10,07,16,01,19.30
2016,10,07,16,02,20.90
2016,10,07,16,03,20.90
2016,10,07,16,04,20.90
2016,10,07,16,05,19.30
2016,10,07,16,06,25.70
2016,10,07,16,07,22.50
2016,10,07,16,08,17.70
2016,10,07,16,09,20.90
2016,10,07,16,10,19.30
2016,10,07,16,11,19.30
2016,10,07,16,12,19.30
2016,10,07,16,13,24.20
2016,10,07,16,14,20.90
2016,10,07,16,15,30.60
2016,10,07,16,16,30.60
2016,10,07,16,17,29.00
2016,10,07,16,18,27.40
2016,10,07,16,19,25.70
2016,10,07,16,20,27.40
2016,10,07,16,21,29.00
2016,10,07,16,22,22.50
2016,10,07,16,23,22.50
2016,10,07,16,24,24.20
2016,10,07,16,25,25.70
2016,10,07,16,26,20.90
2016,10,07,16,27,22.50
2016,10,07,16,28,32.20
2016,10,07,16,29,24.20
2016,10,07,16,30,27.40
2016,10,07,16,31,27.40
2016,10,07,16,32,22.50
2016,10,07,16,33,11.30
2016,10,07,16,34,22.50
2016,10,07,16,35,19.30
2016,10,07,16,36,17.70
2016,10,07,16,37,16.10
2016,10,07,16,38,17.70
2016,10,07,16,39,19.30
2016,10,07,16,40,19.30
2016,10,07,16,41,19.30
2016,10,07,16,42,17.70
2016,10,07,16,43,16.10
2016,10,07,16,44,17.70
2016,10,07,16,45,16.10
2016,10,07,16,46,24.20
2016,10,07,16,47,19.30
2016,10,07,16,48,19.30
2016,10,07,16,49,16.10
2016,10,07,16,50,9.60
2016,10,07,16,51,17.70
2016,10,07,16,52,16.10
2016,10,07,16,53,16.10
2016,10,07,16,54,11.30
2016,10,07,16,55,11.30
2016,10,07,16,56,17.70
2016,10,07,16,57,14.50
2016,10,07,16,58,16.10
2016,10,07,16,59,27.40
2016,10,07,17,00,17.70
2016,10,07,17,01,19.30
2016,10,07,17,02,16.10
2016,10,07,17,03,11.30
2016,10,07,17,04,9.60
2016,10,07,17,05,6.40
2016,10,07,17,06,9.60
2016,10,07,17,07,14.50
2016,10,07,17,08,9.60
2016,10,07,17,09,14.50
2016,10,07,17,10,11.30
2016,10,07,17,11,14.50
2016,10,07,17,12,12.90
2016,10,07,17,13,11.30
2016,10,07,17,14,12.90
2016,10,07,17,15,17.70
2016,10,07,17,16,11.30
2016,10,07,17,17,11.30
2016,10,07,17,18,9.60
2016,10,07,17,19,6.40
2016,10,07,17,20,6.40
2016,10,07,17,21,4.80